Snowfall_Accumulation
0.0 0.0 0.0 0.0 0.0 0.0 0.0 0.0 0.2 0.3 0.1 0.0 0.0 0.0 0.0 0.0 0.0 0.0 0.0 0.0 0.0 0.0 0.0 0.0 0.0 0.0 0.0 0.0 0.0 0.0 0.0 0.0 0.0 0.0 0.0 0.0 0.0 0.0
0.0 0.0 0.0 0.0 0.0 0.0 0.0 0.0 0.0 0.1 0.1 0.0 0.0 0.0 0.0 0.0 0.0 0.0 0.0 0.0 0.0 0.1 0.1 0.0 0.0 0.0 0.0 0.1 0.0 0.0 0.0 0.0 0.0 0.0 0.0 0.0 0.0 0.0
0.0 0.0 0.0 0.0 0.0 0.0 0.0 0.0 0.1 0.2 0.2 0.0 0.0 0.1 0.1 0.1 0.1 0.1 0.0 0.0 0.0 0.1 0.2 0.2 0.2 0.2 0.1 0.1 0.1 0.1 0.1 0.0 0.0 0.0 0.0 0.0 0.0 0.0
0.1 0.0 0.0 0.0 0.1 0.0 0.1 0.1 0.2 0.2 0.6 0.6 0.3 0.2 0.2 0.2 0.1 0.1 0.1 0.1 0.1 0.1 0.2 0.2 0.2 0.3 0.3 0.3 0.2 0.2 0.1 0.1 0.1 0.0 0.0 0.0 0.0 0.0
0.1 0.3 0.1 0.1 0.3 0.3 0.3 0.4 0.4 0.3 0.8 1.3 0.7 0.3 0.3 0.2 0.2 0.1 0.1 0.0 0.0 0.0 0.0 0.1 0.1 0.3 0.3 0.4 0.4 0.3 0.3 0.3 0.2 0.1 0.1 0.0 0.0 0.0
0.5 0.6 0.8 0.7 0.9 0.8 0.8 0.8 0.8 0.9 1.0 1.3 1.5 1.2 0.7 0.5 0.4 0.7 0.3 0.2 0.1 0.0 0.0 0.1 0.2 0.3 0.3 0.2 0.2 0.3 0.3 0.4 0.4 0.4 0.3 0.3 0.2 0.1
0.8 1.1 1.1 0.8 0.4 0.3 0.6 1.1 1.0 1.4 2.0 2.6 2.4 1.9 1.3 0.9 0.7 0.7 1.0 0.5 0.3 0.1 0.1 0.1 0.1 0.1 0.0 0.0 0.0 0.0 0.1 0.4 0.6 0.6 0.4 0.4 0.4 0.3
1.0 1.0 1.1 1.0 0.7 0.6 0.6 0.9 1.5 2.5 3.4 3.8 3.1 2.3 1.3 0.6 0.5 1.2 2.4 2.7 2.4 0.2 0.3 0.2 0.1 0.1 0.0 0.0 0.1 0.2 0.5 0.7 0.8 0.7 0.6 0.6 0.5 0.4
1.0 0.9 0.6 0.5 0.6 0.5 0.6 1.0 1.7 2.0 2.5 2.6 2.3 1.5 1.5 1.2 2.1 3.3 3.1 3.7 2.7 1.0 0.6 0.8 0.2 0.4 0.1 0.1 0.2 0.2 0.4 0.5 0.7 0.7 0.7 0.6 0.5 0.5
0.7 0.5 0.6 0.6 0.5 0.8 1.5 2.2 1.6 1.2 1.0 1.0 1.0 1.2 1.2 1.4 2.3 3.5 3.2 2.5 1.1 0.6 0.5 2.6 1.0 0.6 0.1 0.2 0.2 0.3 0.5 0.6 0.9 0.9 0.9 0.9 0.8 0.7
0.4 0.3 0.6 0.6 0.7 2.0 2.9 2.6 1.5 0.8 0.6 0.9 1.2 1.2 1.1 1.1 1.0 2.6 4.3 5.0 3.8 1.5 0.9 2.5 1.7 1.1 0.4 0.2 0.1 0.4 0.8 0.8 0.9 1.0 1.0 0.9 1.0 1.0
0.3 0.3 0.4 0.6 1.5 2.8 2.8 2.3 1.5 1.0 1.4 1.2 0.7 0.5 0.5 0.5 0.7 2.7 7.0 10.5 8.0 5.0 1.3 2.9 3.3 3.4 3.9 0.7 0.3 0.4 0.6 0.7 0.8 1.0 1.0 1.1 1.1 1.3
0.9 0.4 0.2 1.1 2.3 2.5 1.9 1.2 1.4 2.2 1.7 0.9 0.7 0.6 0.5 0.6 0.8 1.3 3.7 10.0 12.6 8.3 2.8 6.7 8.0 4.8 6.9 3.3 0.6 0.5 1.2 1.9 2.1 1.9 1.3 1.1 1.2 1.7
1.3 0.8 1.0 1.9 1.8 1.2 0.7 0.8 1.5 1.3 0.7 0.9 1.0 1.0 1.1 1.2 1.0 1.2 1.8 3.5 6.5 7.8 4.8 8.5 13.1 9.4 10.7 9.1 5.5 3.8 2.5 3.4 5.1 5.6 3.2 1.9 1.2 1.0
1.3 1.7 2.0 1.4 0.7 0.5 0.5 0.7 0.8 0.8 1.7 2.5 2.2 1.7 1.2 1.4 1.5 1.7 1.7 2.1 2.9 3.5 4.0 5.6 9.5 10.2 12.2 12.3 9.2 6.9 7.0 6.3 6.9 8.1 5.3 3.3 2.3 1.2
1.8 1.7 0.9 0.6 0.5 0.5 0.6 0.5 0.7 1.0 2.3 3.6 3.1 2.0 1.8 1.9 2.2 2.7 3.9 4.2 4.9 4.0 3.7 4.4 6.2 9.4 11.1 9.0 9.8 9.0 9.3 12.3 9.7 6.8 4.3 3.1 2.0 1.7
2.2 1.1 0.7 0.6 0.7 0.7 0.7 0.6 0.7 0.9 1.7 2.5 3.5 3.6 3.0 2.7 2.8 3.3 5.3 6.7 7.6 6.3 5.4 4.3 4.1 5.0 6.8 8.0 8.9 8.2 9.5 11.5 8.7 5.6 4.6 4.7 2.4 1.5
1.7 1.6 1.5 1.3 1.4 1.3 1.3 1.4 1.1 1.3 2.3 3.6 4.4 4.6 4.8 4.6 4.7 4.3 6.1 8.0 8.1 7.0 6.5 5.5 5.3 5.4 5.0 4.8 6.7 9.5 10.2 10.9 7.5 5.6 5.1 6.8 5.8 2.5
1.9 2.2 2.1 2.0 1.9 1.8 1.8 2.2 2.4 1.9 3.0 4.5 5.5 5.7 6.0 5.7 6.2 6.5 7.1 7.8 7.6 6.7 5.5 5.1 6.4 10.0 11.2 7.4 4.8 7.2 11.4 11.0 8.5 6.6 4.9 6.9 8.4 5.2
2.1 2.6 2.7 2.3 2.2 2.7 3.0 3.3 3.5 3.0 3.6 4.8 5.7 6.2 7.0 7.8 7.7 7.7 8.0 8.5 8.1 6.3 4.4 3.1 4.7 9.5 15.1 13.7 10.3 8.3 6.7 9.9 11.4 11.1 6.9 4.2 4.0 1.9
2.8 2.9 2.8 2.8 3.3 3.8 4.2 4.5 5.0 5.5 5.8 7.1 7.0 7.2 8.0 9.3 8.7 7.9 7.7 7.0 6.6 6.1 5.4 3.7 3.2 5.0 8.6 10.7 9.7 7.6 7.7 5.9 6.8 12.2 12.6 11.2 9.1 7.0
3.1 3.3 3.5 3.4 4.1 4.9 5.0 5.3 5.8 5.9 6.6 7.5 7.8 8.2 8.9 9.9 9.7 8.1 7.0 6.8 6.2 5.8 5.3 3.8 3.1 4.1 6.6 9.8 8.6 6.1 6.0 5.8 4.7 4.0 5.8 9.6 16.8 18.5
3.8 3.8 3.8 4.0 4.6 5.2 5.7 6.0 6.7 6.8 7.3 8.7 9.0 8.8 8.9 8.8 7.6 7.3 7.2 7.0 7.2 6.5 6.0 5.5 4.6 4.6 5.3 6.4 7.3 6.5 5.5 4.9 4.6 4.9 6.4 4.5 4.4 5.2